Regional Weather Roundup
Issued by NWS Grand Forks, ND

Home | Current Version | Previous Version | Graphics & Text | Print | Product List | Glossary On
Versions: 1 2 3 4 5 6 7 8 9 10 11 12 13 14 15 16 17 18 19 20 21 22 23 24 25 26 27 28 29 30 31 32 33 34 35 36 37 38 39 40 41 42 43 44 45 46 47 48 49 50
000
ASUS43 KFGF 160210
RWRFGF
PRAIRIE TO PINES  WEATHER ROUNDUP
NATIONAL WEATHER SERVICE EASTERN NORTH DAKOTA/GRAND FORKS ND
900 PM CDT MON SEP 15 2014

 **SATELLITE DATA USED TO AUGMENT SKY COVER AT AUTOMATED STATIONS**
 *****  WEATHER ACROSS EASTERN NORTH DAKOTA  *****

CITY           SKY/WX    TMP DP  RH WIND       PRES   REMARKS
GRAND FORKS    CLEAR     53  41  63 SW6       30.08R
GRAND FRKS AFB CLEAR     50  43  77 SW5       30.09R
GRAND FRKS NWS   N/A     52 N/A N/A W6          N/A
DEVILS LAKE    CLEAR     50  37  62 SW3       30.08R
FARGO          CLEAR     52  40  63 S9        30.13S
WAHPETON ARPT  CLEAR     46  34  61 S7        30.17S
$$

 ***** WEATHER ACROSS CENTRAL AND WESTERN NORTH DAKOTA  *****

CITY           SKY/WX    TMP DP  RH WIND       PRES   REMARKS
BISMARCK       CLEAR     56  38  50 S7        30.12S
MINOT          CLEAR     57  36  45 SW5       30.07S
JAMESTOWN      CLEAR     48  39  71 S5        30.13S
MINOT AFB      CLEAR     47  38  71 SW6       30.06S
GARRISON         N/A     52  42  69 CALM      30.09S
WILLISTON      CLEAR     45  35  68 CALM      30.06S
DICKINSON      CLEAR     51  37  58 S6        30.09S
HETTINGER      CLEAR     53  39  59 SE6       30.12S
$$

 *****  OTHER AIRPORT OBSERVATIONS IN OUR AREA  *****

CITY           SKY/WX    TMP DP  RH WIND       PRES   REMARKS
WALHALLA         N/A     52  39  62 S3        30.05S
GRAFTON AIRPOR FAIR      50  41  71 W8        30.07R
VALLEY CITY AR FAIR      50  39  66 SW9       30.14S
CANDO          FAIR      48  37  66 SW5       30.09S
CAVALIER APRT  FAIR      48  41  76 CALM      30.06S
GWINNER        CLEAR     48  43  81 S7        30.18S
ROLLA          FAIR      45  39  81 SW7       30.08S
 ***** THE ABOVE OBSERVATIONS ARE NON NWS ARE NOT QUALITY
       CONTROLLED AND MAY MIS-REPORT RAIN FOR SNOW...
$$

  *****  WEATHER ACROSS NORTHERN MINNESOTA  *****

CITY           SKY/WX    TMP DP  RH WIND       PRES   REMARKS
FLAG ISLAND    CLEAR     54  43  66 SW8       30.03S
WARROAD        PTCLDY    50  41  71 S3        30.06S
ROSEAU         PTCLDY    48  41  76 S5        30.05F
HALLOCK        CLEAR     50  43  76 SW3       30.05S
THF RVR FALLS  CLEAR     48  39  71 S9        30.08S
BAUDETTE       PTCLDY    46  41  82 CALM      30.06F
WASKISH        MOCLDY    48  43  81 CALM      30.09F
CROOKSTON      CLEAR     50  43  76 SW7       30.10S
STEPHEN NDAWN    N/A     50  43  76 SW3         N/A
GREENBUSH NDAW   N/A     48  43  81 SW3         N/A
$$
  *****  WEATHER ACROSS CENTRAL AND WEST MINNESOTA  *****

CITY           SKY/WX    TMP DP  RH WIND       PRES   REMARKS
FOSSTON        CLEAR     45  37  76 S8        30.12F
BEMIDJI        CLEAR     49  39  67 S6        30.12S
PARK RAPIDS    CLEAR     45  38  76 S7        30.15S
ELBOW LAKE     FAIR      49  38  67 S6        30.19S
WADENA         CLEAR     45  37  76 S5        30.17F
DETROIT LAKES  CLEAR     52  41  66 SW6       30.16F
MOORHEAD       CLEAR     55  43  62 SW8       30.15S
FERGUS FALLS   CLEAR     48  37  66 S6        30.18S
MORRIS MN      FAIR      46  39  76 CALM      30.19F
STAPLES        CLEAR     45  37  76 SW3       30.18S
$$
  *****  WEATHER ELSEWHERE ACROSS MINNESOTA  *****

CITY           SKY/WX    TMP DP  RH WIND       PRES   REMARKS
DULUTH         PTCLDY    45  36  70 W7        30.15S
INTRNTL FALLS  CLEAR     38  36  92 CALM      30.08F
ELY            CLEAR     43  37  81 SW3       30.11S
CLOQUET        CLEAR     43  37  81 SW3       30.16S
WHEATON        CLEAR     46  36  66 S7        30.21S
BRAINERD       CLEAR     41  39  93 S5        30.18S
HIBBING        CLEAR     39  36  89 CALM      30.14R
ALEXANDRIA     CLEAR     49  40  71 S5        30.20S
SAINT CLOUD    CLEAR     48  42  80 CALM      30.20S
MINNEAPOLIS    CLEAR     51  42  71 W3        30.21R
$$

  *****  WEATHER ACROSS SOUTH DAKOTA  *****

CITY           SKY/WX    TMP DP  RH WIND       PRES   REMARKS
SIOUX FALLS    CLEAR     49  43  80 CALM      30.23S
BROOKINGS      NOT AVBL
WATERTOWN      CLEAR     50  37  61 CALM      30.21S
HURON          CLEAR     50  38  63 SE3       30.21S
SISSETON         N/A     45  40  82 SW6       30.18S
ABERDEEN       CLEAR     43  39  86 S6        30.19S
MITCHELL       CLEAR     54  41  61 S3        30.23R
PIERRE         CLEAR     52  39  61 SE8       30.16F
MOBRIDGE       CLEAR     48  41  76 S3        30.14S
RAPID CITY     CLEAR     54  44  69 SE8       30.12F
$$

  *****  SOME WEATHER IN NEARBY STATES *****

CITY           SKY/WX    TMP DP  RH WIND       PRES   REMARKS
GLASGOW MT     CLEAR     56  37  49 E10       30.04S
GREAT FALLS MT CLEAR     62  39  42 E8        30.01S
CHEYENNE WY    CLEAR     57  44  62 S13       30.26F
SCOTTSBLUFF NE CLEAR     58  47  66 SE10      30.17S
OMAHA NE       CLEAR     53  48  83 CALM      30.26R
DES MOINES IA  PTCLDY    55  45  68 N5        30.24R
DAVENPORT IA   CLEAR     50  47  89 NW3       30.20R
CHICAGO IL     PTCLDY    55  50  83 N8        30.15R
EAU CLAIRE WI  CLEAR     46  40  79 CALM      30.20R
LA CROSSE WI   CLEAR     50  45  83 N3        30.21R
$$

  *****  SOME NATIONAL WEATHER *****

CITY           SKY/WX    TMP DP  RH WIND       PRES   REMARKS
LA GUARDIA NY  MOCLDY    65  51  60 S9        30.09F
RALEIGH NC     MOCLDY    70  65  84 SE3       30.14F
ATLANTA GA     CLOUDY    74  71  91 E5        30.14S
NEW ORLEANS LA MOCLDY    79  75  87 CALM      30.09R
OKLAHOMA CITY  MOCLDY    75  68  78 S6        30.13R
ALBUQUERQUE NM CLOUDY    71  56  58 SE14      30.23R
SALT LAKE CITY PTCLDY    77  42  28 CALM      30.04S
LOS ANGELES CA PTCLDY    82  61  48 W10       29.71S
BOISE ID       PTCLDY    85  34  16 CALM      29.91F
SEATTLE WA     MOCLDY    77  41  27 CALM      29.80S
$$

*** WEATHER ACROSS MANITOBA...SASKATCHEWAN AND ONTARIO ***
                ***ONTARIO***

CITY           SKY/WX    TMP DP  RH WIND       PRES   REMARKS
GERALDTON      PTCLDY    43  39  87 SW8       29.96F
THUNDER BAY    CLEAR     45  39  81 W7        30.06S
SIOUX LOOKOUT  CLEAR     52  39  62 W8        29.98F
TORONTO        LGT RAIN  55  54  94 W5        30.06R
BIG TROUT LK   CLOUDY    43  41  93 NW5       29.79S
PICKLE LAKE    PTCLDY    50  37  62 SW13G20   29.86F
DRYDEN         PTCLDY    50  39  66 SW12      30.01F
KENORA         MOCLDY    50  39  66 SW7       30.02F
$$
                *** MANITOBA***

CITY           SKY/WX    TMP DP  RH WIND       PRES   REMARKS
BRANDON        PTCLDY    50  43  76 SW8       30.01S
DAUPHIN        CLOUDY    59  46  63 SW8       29.93F
ISLAND LAKE    LGT RAIN  45  43  93 N6        29.90R
PILOT MOUND      N/A     46  37  71 S5          N/A
THE PAS        MOCLDY    55  45  67 NE7G17    29.91R
THOMPSON       MOCLDY    32  30  93 N5        30.04R
WINNIPEG       PTCLDY    55  37  50 SW7       30.01F
LYNN LAKE      CLEAR     30  23  74 MISG      30.06R
CHURCHILL      PTCLDY    36  25  64 NW18G24   29.99F
GILLAM         MOCLDY    34  28  80 N13       30.00S WCI  25
$$
                ***SASKATCHEWAN***

CITY           SKY/WX    TMP DP  RH WIND       PRES   REMARKS
ESTEVAN        PTCLDY    50  37  62 SW7       30.05S
KINDERSLEY     NOT AVBL
LLOYDMINSTER   CLEAR     61  41  48 N5        29.93S
PRINCE ALBERT  PTCLDY    54  50  87 CALM      29.93S
REGINA         CLEAR     55  43  62 S2        30.01F
YORKTON        MOCLDY    59  43  55 SW8       29.96F
N. BATTLEFORD  CLEAR     57  43  58 CALM      29.95S
LA RONGE       MOCLDY    54  43  66 NE8       29.93S
SASKATOON      PTCLDY    61  43  51 SW5       29.96S
SWIFT CURRENT  CLEAR     55  37  50 SE6       30.00S
$$
NOTE: THESE ARE AUTOMATED STATIONS WITH LIMITED QUALITY CONTROL
      "FAIR" INDICATES FEW OR NO CLOUDS BELOW 12,000 FEET WITH NO
      SIGNIFICANT WEATHER AND/OR OBSTRUCTIONS TO VISIBILITY.
      SKY/WX - SKY CONDITION AND SIGNIFICANT WEATHER.
      TMP - AIR TEMPERATURE.    DP   - DEWPOINT TEMPERATURE.
      RH  - RELATIVE HUMIDITY.  PRES - PRESSURE.
      HX  - HEAT INDEX.         WCI  - WIND CHILL INDEX.
$



USA.gov is the U.S. government's official web portal to all federal, state and local government web resources and services.